Location: Barrio de Buenos Aires
(28.4500°N, 16.2667°W)
Time: 04:38:44
(UTC+00:00)

Cosmos 1934 Rocket - Pass Details

Date: 24 January 2020
Orbit: 938 x 999 km, 83.0° (Epoch: 17 February)

Event Time Altitude Azimuth Distance (km) Brightness Sun altitude
Rises 20:06:35 0° 167° (SSE) 3,621 7.0 -19.5°
Reaches altitude 10° 20:09:11 10° 160° (SSE) 2,670 6.2 -20.1°
Maximum altitude 20:14:54 43° 91° (E) 1,294 4.2 -21.3°
Enters shadow 20:15:53 40° 66° (ENE) 1,354 4.2 -21.5°
